カタログに戻る

COSMOS 374 DEB

運用中LEO
NORAD 5020·DEBRIS·🇷🇺 Russia

打ち上げ Oct 23, 1970 から Baikonur Cosmodrome

Loading…

次のパス

TLE

Source: Space-Track
1 05020U 70089W   26230.15928457  .00000535  00000-0  20624-3 0  9995
2 05020  62.9282 132.7608 0691119 176.9162 183.6482 13.53293362687127

AllMySatでCOSMOS 374 DEBをリアルタイム追跡

Download on the App Store